STARLINK-5993, 56449

Orbit data source: Space-Track

STARLINK-5993, 56449 is a payload satellite owned by SpaceX/Seattle (US) in LEO that was launched on Wed, 10 May 2023 UTC via an FALCON 9 launch vehicle from the Air Force Western Test Range (AFWTR). Payload-class satellites include a variety of spacecraft equipped with specific instruments for various scientific and technological missions. These include communications satellites like Starlink; space stations such as the ISS; scientific satellites like the Hubble; Earth observation satellites from companies like Planet Labs, Umbra, and HawkEye 360; GPS; miniature CubeSats for education and research; and military/defense satellites.

Loading next visibility...
Identifier
56449, 2023-064B
Orbit
LEO
Country
Flag of USUS
Related business
Manufacturer
SpaceX/Seattle
Mission
Operational Commercial Communications
Bus & Motor
STARLINK, Unknown motor
Mass
305 kg wet, ~290 kg dry
Launch date (UTC)
2023-05-10 (3 years ago)
Launch vehicle
FALCON 9
Launch site
Air Force Western Test Range (AFWTR)
Object type
Payload
Rocket body
Debris
Shape & HBR
Box + 1 Pan, 10.1 m
Radar Cross Section
11.087 m², Large (>1 m²)

Expand to show TLE details & history
Last TLE update: 2 days ago

TLE from 2 days ago
0 STARLINK-5993
1 56449U 23064B   26171.44956854 -.00000171  00000-0 -65580-5 0  9995
2 56449  69.9992 245.5528 0003075 270.5313  89.5493 14.98329664170638
Epoch: 2026-06-20T10:47Z
TLE epoch observation values (Epoch: 2026-06-20T10:47:22.721Z)
Latitude
-0.00011°
Longitude
175.04406°
Altitude
574.465 km
Speed
7.574 km/s
True Right ascension
16h 22m 12s
True Declination
0° 00' 00"
Sunlit
Object was in full shadow at epoch
Visualization orbit readout
Latitude
Unknown
Longitude
Unknown
Altitude
Unknown
Speed
Unknown
Apparent Right ascension
Unknown
Apparent Declination
Unknown
Sunlit
N/A
Visualization observer readout
Local Sidereal Time
21:31:17
Azimuth
Unknown
Elevation
Unknown
Doppler factor
Unknown
Orbital elements
Apogee altitude
572.142 km
Perigee altitude
567.869 km
Semi-major axis
6,948.142 km
Eccentricity
0.00031
Inclination
69.9992°
RAAN
245.5528°
Arg. of periapsis
270.5313°
True anomaly
89.58454°
Mean anomaly
89.5493°
Eccentric anomaly
89.56692°
Mean motion
3.74749 °/min
Orbital period
96.06 mins
BSTAR
-0.000006558
Loading maneuver chart data...
Computing Atmospheric mass density...
Loading historical data...
Loading historical data...
Loading historical data...
Loading historical data...
Loading historical data...
Loading historical data...
Loading historical data...

Documentation

Showing up to 5 results
|